Preview of NWS' New Version of Forecast
This preview is not operational and should not be used for support decisions.

Regional Weather Roundup (RWR)

Issued by National Weather Service (NWS)

                            
000
ASUS45 KCYS 242010
RWRWY 

WYOMING REGIONAL WEATHER ROUNDUP
NATIONAL WEATHER SERVICE CHEYENNE WY
200 PM MDT SAT AUG 24 2019

NOTE:  "FAIR" INDICATES FEW OR NO CLOUDS BELOW 12,000 FEET
WITH NO SIGNIFICANT WEATHER AND/OR OBSTRUCTIONS TO VISIBILITY.

WYZ001-242100-
YELLOWSTONE NATIONAL PARK
  
CITY           SKY/WX    TMP DP  RH WIND       PRES   REMARKS
LK YELLOWSTONE   N/A     69  32  25 VRB6      30.20F                  
W YELLOWSTONE  NOT AVBL                                               

$$
WYZ002>013-054>058-071-098>099-242100-
NORTHERN WYOMING
  
CITY           SKY/WX    TMP DP  RH WIND       PRES   REMARKS
JACKSON        FAIR      78  35  21 SW13G18   30.12F                  
CODY           FAIR      82  46  28 VRB6G16   29.97F                  
GREYBULL       FAIR      83  44  25 CALM      29.90F                  
WORLAND        FAIR      82  43  25 CALM      29.92F                  
SHERIDAN       FAIR      84  48  28 MISG      29.90S                  
BUFFALO        FAIR      79  45  29 VRB6        N/A                   
GILLETTE       FAIR      79  49  34 N3        29.93F                  
HULETT         FAIR      77  59  53 W6        29.95                   
NEWCASTLE      FAIR      77  50  38 S3        29.95                   

$$
WYZ014>020-022>026-101>103-242100-
CENTRAL WYOMING
  
CITY           SKY/WX    TMP DP  RH WIND       PRES   REMARKS
BIG PINEY      FAIR      78  31  17 W7        30.17F                  
PINEDALE       FAIR      73  30  20 W3        30.19                   
DUBOIS         FAIR      75  28  17 NW16G22   30.12                   
LANDER         FAIR      82  40  22 VRB5      30.01F                  
RIVERTON       FAIR      82  42  24 E9        30.02F                  
CASPER         FAIR      82  34  17 NW10G22   30.00F                  
DOUGLAS        FAIR      83  41  22 W21       29.98F                  

$$
WYZ021-027>030-104>119-242100-
SOUTHERN WYOMING
  
CITY           SKY/WX    TMP DP  RH WIND       PRES   REMARKS
EVANSTON       FAIR      79  29  16 W20G28    30.22F                  
KEMMERER       FAIR      79  27  14 W20G31    30.20                   
ROCK SPRINGS   FAIR      80  29  15 NW18G30   30.16F                  
DIXON          FAIR      78  26  14 S10G17    30.19S                  
RAWLINS        FAIR      80  32  17 W16G29    30.14S                  
SARATOGA       FAIR      79  32  18 W15G24    30.17F                  
LARAMIE        FAIR      77  26  15 NW24G33   30.14F                  
CHEYENNE       FAIR      80  30  16 W16G30    30.07R                  
TORRINGTON     FAIR      79  58  48 SW8       29.95F                  
PINE BLUFFS    FAIR      79  45  29 NW13G18   30.03S                  

$$
  

000
ASUS45 KCYS 242010
RWRWY 

WYOMING REGIONAL WEATHER ROUNDUP
NATIONAL WEATHER SERVICE CHEYENNE WY
200 PM MDT SAT AUG 24 2019

NOTE:  "FAIR" INDICATES FEW OR NO CLOUDS BELOW 12,000 FEET
WITH NO SIGNIFICANT WEATHER AND/OR OBSTRUCTIONS TO VISIBILITY.

WYZ001-242100-
...YELLOWSTONE NATIONAL PARK...
  
CITY           SKY/WX    TMP DP  RH WIND       PRES   REMARKS
LK YELLOWSTONE   N/A     69  32  25 VRB6      30.20F                  
W YELLOWSTONE  NOT AVBL                                               

$$
WYZ002>013-054>058-071-098>099-242100-
...NORTHERN WYOMING...
  
CITY           SKY/WX    TMP DP  RH WIND       PRES   REMARKS
JACKSON        SUNNY     78  35  21 SW13G18   30.12F                  
CODY           PTSUNNY   82  46  28 VRB6G16   29.97F                  
GREYBULL       PTSUNNY   83  44  25 CALM      29.90F                  
WORLAND        MOSUNNY   82  43  25 CALM      29.92F                  
SHERIDAN       MOSUNNY   84  48  28 MISG      29.90S                  
BUFFALO        SUNNY     79  45  29 VRB6        N/A                   
GILLETTE       SUNNY     79  49  34 N3        29.93F                  
HULETT         FAIR      77  59  53 W6        29.95S                  
NEWCASTLE      FAIR      77  50  38 S3        29.95S                  

$$
WYZ014>020-022>026-101>103-242100-
...CENTRAL WYOMING...
  
CITY           SKY/WX    TMP DP  RH WIND       PRES   REMARKS
BIG PINEY      SUNNY     78  31  17 W7        30.17F                  
PINEDALE       SUNNY     73  30  20 W3        30.19S                  
DUBOIS         FAIR      75  28  17 NW16G22   30.12F                  
LANDER         MOSUNNY   82  40  22 VRB5      30.01F                  
RIVERTON       MOSUNNY   82  42  24 E9        30.02F                  
CASPER         SUNNY     82  34  17 NW10G22   30.00F                  
DOUGLAS        SUNNY     83  41  22 W21       29.98F                  

$$
WYZ021-027>030-104>119-242100-
...SOUTHERN WYOMING...
  
CITY           SKY/WX    TMP DP  RH WIND       PRES   REMARKS
EVANSTON       SUNNY     79  29  16 W20G28    30.22F                  
KEMMERER       SUNNY     79  27  14 W20G31    30.20F                  
FORT BRIDGER   NOT AVBL                                               
ROCK SPRINGS   MOSUNNY   80  29  15 NW18G30   30.16F                  
DIXON          FAIR      78  26  14 S10G17    30.19S                  
RAWLINS        SUNNY     80  32  17 W16G29    30.14S                  
SARATOGA       FAIR      79  32  18 W15G24    30.17F                  
LARAMIE        MOSUNNY   77  26  15 NW24G33   30.14F                  
CHEYENNE       MOSUNNY   80  30  16 W16G30    30.07R                  
TORRINGTON     SUNNY     79  58  48 SW8       29.95F                  
PINE BLUFFS    FAIR      79  45  29 NW13G18   30.03S                  

$$